Temperature
20 20 20 20 23 25 24 24 24 24 24 22 22 23 23 22 22 21 17 17 17 17 17 17 18 18 18 18 18 18 18 18 18 18 18 18 17 17 17 17 17 18 18 18 18 18 18 18 18
19 20 20 22 25 25 24 24 23 23 23 22 22 22 22 21 19 18 17 17 17 17 17 17 18 18 18 18 18 18 18 18 18 17 17 17 17 17 17 17 17 17 17 17 17 17 17 17 17
20 20 21 24 25 25 23 23 23 22 22 22 22 21 21 20 18 18 17 17 17 17 17 17 18 18 17 17 17 18 17 17 17 17 17 17 17 17 17 17 17 17 17 17 17 17 17 17 17
19 20 22 24 24 23 23 23 23 23 22 22 22 22 20 18 18 17 17 17 17 17 17 17 17 17 17 17 17 17 17 17 17 17 17 17 17 17 17 17 17 17 17 17 17 17 17 17 17
20 22 24 24 23 23 23 23 23 23 23 22 22 22 20 17 17 17 17 17 17 17 17 17 17 17 17 17 17 17 17 17 17 17 17 17 17 17 17 17 17 17 17 17 17 17 17 17 17
21 24 24 24 23 23 23 22 22 23 22 21 21 21 19 17 17 17 17 17 17 17 17 17 17 17 17 17 17 17 17 17 17 17 17 17 17 17 17 17 17 17 17 17 17 17 17 17 17
22 24 24 24 23 23 22 21 22 23 22 21 21 21 19 17 17 17 17 17 17 17 17 17 17 17 17 17 17 17 17 17 17 17 17 17 17 16 17 17 16 16 16 16 16 16 16 17 17
21 24 23 23 23 23 22 21 21 22 21 20 20 21 20 18 17 17 17 17 17 17 17 17 16 16 17 17 17 17 17 17 17 17 17 16 16 16 16 16 16 16 16 16 16 16 16 16 16
21 24 23 23 23 22 22 22 21 21 21 20 19 19 19 18 17 17 17 17 17 17 17 17 17 17 17 17 17 17 17 17 16 16 16 16 16 16 16 16 16 16 16 16 16 16 16 16 16
22 23 23 23 23 23 22 22 21 21 21 21 19 18 18 17 17 17 17 17 17 17 17 17 17 17 17 16 16 16 16 16 16 16 16 16 16 16 16 16 16 16 16 16 16 16 16 16 16
23 23 22 22 22 22 22 21 21 22 22 21 20 19 18 17 17 17 17 17 17 17 17 17 17 17 17 16 17 16 16 16 16 16 16 16 16 16 16 16 16 16 16 16 16 16 16 16 16
22 22 22 22 21 21 22 21 21 21 21 20 20 19 18 18 18 17 18 17 17 17 17 17 17 17 17 17 16 16 16 16 16 16 16 16 16 16 16 16 16 16 16 16 16 16 16 16 16
22 22 21 21 21 21 21 21 21 20 19 19 19 19 18 18 18 18 17 17 17 17 17 17 17 17 17 16 16 16 16 16 16 16 16 16 16 16 16 16 16 16 16 16 16 16 16 15 15
22 21 21 21 21 21 21 21 21 20 19 19 19 19 18 18 18 18 17 17 17 17 17 17 17 17 17 17 16 16 16 16 16 16 16 16 16 16 16 16 16 16 16 16 16 15 15 15 15
21 22 22 22 22 21 21 22 21 20 19 19 19 19 18 18 18 18 18 17 17 17 17 17 16 16 17 17 16 16 16 16 16 16 16 16 16 16 16 16 16 16 15 15 15 15 15 15 15
22 23 22 22 22 21 22 22 22 19 19 19 19 19 18 18 18 18 18 17 17 17 17 17 16 16 16 16 16 16 16 16 16 16 16 16 16 16 16 16 16 15 15 15 15 15 15 15 15
22 22 22 22 22 22 22 22 21 19 19 20 19 19 18 18 18 18 17 17 17 17 17 17 16 16 16 16 16 16 16 16 16 16 16 16 16 16 16 16 15 15 15 15 15 15 15 15 15
22 23 22 22 22 22 22 22 21 20 20 20 20 19 19 19 18 18 18 17 17 17 17 17 17 17 17 16 16 16 16 16 16 16 16 16 16 16 16 16 15 15 15 15 15 15 15 15 15
22 22 22 22 22 22 22 22 22 21 20 20 20 20 19 19 18 18 18 17 17 17 17 17 17 16 16 16 16 16 16 16 16 16 16 16 16 16 16 15 15 15 15 15 15 15 15 15 14
22 22 22 22 22 22 22 22 22 21 20 20 20 20 20 19 19 18 17 17 17 17 17 17 16 16 16 16 16 16 16 16 16 16 16 16 16 16 15 15 15 15 15 15 15 15 15 14 14
22 22 22 22 22 22 22 22 22 22 21 20 20 20 20 19 19 18 18 17 17 17 17 17 17 16 16 16 16 16 16 16 16 16 16 16 16 15 15 15 15 15 15 15 15 15 15 14 14
22 22 22 22 22 22 22 22 23 23 22 21 20 20 20 19 19 18 18 17 17 17 17 17 17 16 16 16 16 16 16 16 16 16 16 16 15 15 15 15 15 15 15 15 15 15 14 14 14
22 22 22 22 22 22 22 22 23 23 22 22 22 20 20 19 18 18 18 17 17 17 17 17 17 16 16 16 16 16 16 16 16 15 15 15 15 15 15 15 15 15 15 15 15 15 14 14 14
21 21 21 22 22 22 22 22 23 23 23 23 22 21 20 19 18 18 17 17 17 17 17 17 17 16 16 16 16 16 16 16 15 15 15 15 15 15 15 15 15 15 15 15 15 15 15 14 14
22 22 22 22 21 22 22 22 23 23 23 23 22 21 20 19 18 18 17 17 17 17 17 17 17 16 16 16 16 16 16 16 15 15 15 15 15 15 15 15 15 15 15 15 15 14 15 15 14
22 22 21 21 21 22 22 22 23 23 22 21 21 20 19 19 18 18 17 17 17 17 17 17 17 16 16 16 16 16 16 16 15 15 15 15 15 15 15 15 15 15 15 15 15 14 14 14 14
22 22 22 22 22 21 22 23 23 22 22 21 21 20 19 19 18 17 17 17 17 16 17 17 16 16 16 16 16 16 16 15 15 15 15 15 15 15 15 15 15 15 14 14 14 14 14 14 14
22 22 21 21 21 21 22 22 23 23 22 22 21 20 19 18 18 17 17 17 17 16 17 17 17 16 16 16 16 16 16 15 15 15 15 15 15 15 15 15 15 15 14 14 14 14 14 14 14
21 21 21 21 21 21 21 22 23 23 22 22 21 20 19 18 18 17 17 16 16 16 16 16 16 16 16 16 16 16 15 15 15 15 15 15 15 15 15 15 15 14 14 14 14 14 14 14 14
21 22 21 21 21 21 21 22 23 22 22 21 21 20 18 18 17 17 16 16 16 16 16 16 16 16 16 16 15 15 15 15 15 15 15 15 15 14 15 14 14 14 14 14 14 14 14 14 14
Wind_Speed
3 1 2 2 3 2 5 4 3 4 4 5 6 5 5 6 5 4 3 3 3 5 5 6 6 6 6 7 8 9 9 10 10 10 10 10 10 10 10 10 10 11 11 10 10 10 10 10 10
0 1 3 3 3 4 5 4 6 6 5 5 5 5 5 6 6 5 4 4 5 6 5 6 7 7 7 8 9 10 10 10 10 10 10 10 10 10 10 10 10 10 10 10 10 10 11 10 11
1 2 2 1 1 2 5 5 6 6 5 3 4 4 4 4 4 3 4 6 6 6 6 8 8 7 7 8 10 10 10 10 9 10 10 10 10 10 10 10 10 10 11 10 10 10 10 11 11
1 2 1 1 6 5 4 5 5 5 4 4 4 5 5 5 3 4 6 6 7 7 7 9 8 8 8 9 10 10 10 10 9 10 10 10 10 10 9 9 10 10 10 10 10 10 10 11 11
2 2 2 4 5 4 4 4 4 3 3 4 4 5 5 4 5 6 7 7 7 7 7 9 8 8 8 9 9 10 10 10 10 10 10 10 10 9 9 9 9 9 10 10 10 10 11 11 11
1 2 3 5 6 4 4 3 3 4 5 4 4 5 5 4 5 6 7 6 6 6 7 8 9 8 8 8 8 9 9 9 9 10 10 10 10 10 10 10 9 9 10 10 10 11 11 11 11
1 1 3 5 5 4 3 2 2 3 4 3 2 4 5 5 5 6 6 7 6 7 6 6 7 8 8 8 8 8 8 9 9 10 10 10 10 9 9 10 10 10 10 10 11 11 11 11 11
1 1 4 4 5 4 3 2 2 2 4 3 1 2 4 6 6 6 6 6 6 6 5 6 6 6 7 8 8 8 8 8 9 9 9 9 9 9 9 10 11 11 11 11 11 11 12 12 11
2 2 3 3 3 4 4 3 3 2 4 3 2 3 4 8 8 8 6 6 6 5 5 5 5 5 6 6 8 7 7 7 7 8 8 5 7 8 9 12 11 11 11 11 11 11 10 10 11
0 2 3 2 2 3 4 3 3 3 4 3 4 5 7 9 8 7 7 6 6 5 4 4 4 4 5 5 5 5 5 5 5 6 6 6 7 7 8 11 10 11 11 11 10 8 6 4 7
2 3 3 3 2 2 3 3 2 2 2 2 3 6 8 8 8 7 6 5 5 5 4 3 3 4 4 4 4 3 4 4 5 5 5 5 5 5 6 6 7 7 7 7 7 5 6 7 7
3 4 3 3 2 2 2 2 2 0 1 1 3 6 8 8 7 7 6 6 5 5 4 4 3 4 4 4 4 3 3 3 3 4 5 4 3 3 4 4 5 5 5 5 5 5 7 7 7
4 4 3 3 3 3 3 2 1 1 1 2 5 7 7 7 6 6 6 5 5 5 4 4 4 4 4 4 3 3 3 3 4 4 4 5 3 3 4 4 4 4 5 5 5 5 6 6 7
4 4 3 3 3 2 3 2 1 2 3 4 5 6 6 5 6 6 6 6 6 5 5 5 4 4 4 4 4 3 3 3 2 3 3 4 3 2 3 4 4 4 4 5 5 6 5 5 6
4 3 3 3 2 2 2 2 2 2 3 4 4 5 5 4 5 5 6 6 6 6 5 5 4 4 4 4 3 3 3 3 3 3 3 3 3 3 3 3 3 4 5 5 5 6 5 5 5
3 3 3 3 2 2 3 2 2 2 4 3 3 4 4 4 5 4 5 5 5 6 6 5 4 4 4 4 3 2 2 2 3 3 2 3 3 3 3 3 3 4 4 5 4 4 4 4 4
3 3 2 2 2 2 3 2 1 2 4 4 4 4 5 5 5 5 5 6 6 6 6 6 6 5 5 4 3 2 2 2 2 2 2 2 3 3 3 3 3 4 4 4 4 4 4 4 4
2 2 2 1 2 2 3 3 2 3 4 4 4 4 5 5 5 4 4 5 6 6 7 7 6 5 5 4 3 3 2 3 2 2 3 3 3 3 4 3 4 4 3 3 4 4 3 3 3
1 2 2 1 1 3 4 5 4 4 5 5 5 5 5 5 4 4 4 5 6 7 7 7 7 6 5 4 4 3 3 3 3 2 3 4 3 3 4 3 4 4 3 4 4 4 5 3 3
3 3 2 2 1 4 5 6 5 6 6 6 5 5 5 5 4 4 4 4 6 7 7 7 7 7 6 4 3 2 2 2 2 2 3 3 3 4 3 4 4 4 3 4 4 4 3 3 2
3 4 3 3 2 4 5 5 6 6 7 6 6 6 6 6 5 5 5 5 6 7 7 7 7 7 7 6 4 3 3 2 3 3 2 3 4 4 4 4 4 4 4 4 4 4 4 3 2
3 2 4 4 5 3 3 4 3 5 7 8 8 7 7 6 6 5 6 6 7 7 7 7 7 7 7 7 6 6 4 3 3 3 3 4 4 4 4 4 4 4 4 4 5 4 3 3 2
1 1 4 5 6 5 5 5 2 3 5 6 7 7 7 7 7 6 7 7 7 7 7 7 7 7 7 7 7 6 5 4 3 3 4 4 4 4 4 4 4 4 3 4 3 4 3 3 2
3 3 3 4 5 5 3 5 2 2 2 3 3 5 6 6 6 6 6 6 7 7 7 7 7 7 7 8 8 7 6 5 5 5 4 4 3 3 4 4 4 4 3 3 3 4 4 3 2
5 4 3 4 4 3 1 4 3 1 2 3 3 3 4 5 6 6 6 7 7 8 9 9 9 8 8 8 8 7 7 6 6 6 5 4 3 3 4 4 4 3 3 3 4 3 3 3 2
5 5 3 3 3 2 3 4 1 1 2 2 2 2 2 3 4 5 6 6 7 8 10 10 10 9 8 8 8 7 7 5 5 5 4 4 3 3 4 4 4 4 4 4 4 3 3 3 2
4 5 4 5 5 5 3 3 3 3 2 1 1 1 1 2 3 4 5 5 6 8 10 10 10 10 9 8 7 7 7 6 5 5 5 4 4 3 4 4 4 4 4 4 4 3 3 2 2
3 3 3 4 4 4 4 5 3 2 2 2 2 2 1 2 3 3 4 5 5 6 8 10 10 10 9 8 7 6 6 6 6 6 5 5 4 4 4 5 4 5 4 4 3 3 2 3 2
5 6 5 5 5 5 4 2 0 2 3 3 3 2 2 2 2 3 3 4 5 5 7 8 9 9 8 8 8 7 6 6 6 5 5 5 5 5 5 5 4 4 4 4 4 3 3 3 3
6 7 8 7 6 6 6 4 1 2 2 3 3 2 2 2 2 2 2 3 4 5 7 7 8 8 8 8 7 7 6 6 6 6 6 6 6 5 5 5 5 4 4 4 4 4 4 3 3
Wind_Direction
171 215 251 245 227 147 91 75 69 87 80 68 67 68 69 50 34 64 86 102 101 112 116 115 104 102 102 100 102 102 102 106 108 109 108 103 98 94 92 91 89 86 84 83 81 81 79 78 79
204 263 245 246 229 141 101 83 81 72 90 98 79 71 74 67 56 84 107 103 109 109 106 98 102 99 101 102 103 102 102 104 106 109 107 103 99 97 95 93 89 85 83 82 82 82 83 81 80
202 265 271 239 115 93 102 91 94 94 87 79 83 61 54 62 67 83 100 121 113 102 98 94 99 98 97 100 101 103 105 105 103 105 105 101 97 97 95 92 88 85 81 80 79 81 83 82 81
252 232 226 133 101 72 85 103 115 120 97 70 94 89 79 54 51 90 116 121 112 106 101 97 97 96 96 100 100 103 106 107 104 103 101 98 95 96 96 94 90 86 83 82 79 81 82 82 80
260 250 161 121 103 91 86 100 130 108 95 83 89 93 88 68 75 109 122 118 110 105 103 107 101 97 97 98 100 103 105 107 107 103 98 95 94 93 95 92 91 89 86 84 82 80 80 79 78
233 227 164 132 116 108 95 90 121 102 98 97 97 99 89 96 102 115 122 117 111 110 109 108 107 99 93 94 96 102 104 105 103 100 97 94 90 88 91 91 90 91 90 88 86 83 81 78 76
292 159 133 130 131 122 100 96 93 101 102 89 97 105 118 124 112 123 124 119 113 110 107 107 115 115 108 97 92 95 98 99 99 97 95 92 88 87 88 90 91 92 91 90 88 85 81 78 77
327 171 136 136 140 116 106 114 82 76 93 90 83 104 128 142 136 131 127 122 117 114 109 108 107 105 112 111 98 95 94 92 96 96 94 95 100 99 98 96 89 90 90 88 89 88 84 79 76
268 187 144 133 140 115 125 128 99 93 115 104 74 66 105 137 145 142 139 135 129 121 113 107 106 103 108 109 109 111 107 101 112 110 111 121 104 99 99 83 83 86 88 87 87 88 91 92 88
228 143 107 85 87 116 128 130 130 151 135 125 118 105 125 142 153 156 154 151 148 139 127 115 110 111 113 113 113 115 117 118 114 108 109 101 95 96 97 100 91 90 94 97 92 99 116 109 92
82 93 101 96 81 116 130 123 146 178 142 131 144 143 148 154 161 165 163 160 154 151 144 129 121 119 116 117 116 117 121 119 117 111 109 104 103 110 106 109 113 109 115 102 106 109 82 78 75
103 88 90 93 97 119 125 129 134 182 57 74 141 152 159 168 170 174 173 165 161 160 159 148 146 139 129 123 122 132 136 135 126 127 120 116 103 104 102 103 100 107 101 94 89 80 80 75 75
113 103 95 93 107 113 115 128 142 137 101 117 136 152 165 174 178 177 177 171 168 167 165 160 162 157 142 133 140 143 136 140 137 129 139 124 113 109 111 106 105 102 100 102 90 86 81 78 75
111 111 108 104 113 118 119 117 172 133 135 140 151 162 170 179 186 179 180 179 179 178 176 167 171 168 164 158 161 146 142 147 142 141 140 128 117 118 119 106 101 101 95 92 97 95 92 84 78
136 138 127 122 136 133 159 176 181 139 156 157 165 168 171 181 187 191 187 187 187 184 179 172 172 176 174 170 161 159 166 157 151 147 152 144 135 137 130 122 117 114 112 106 102 99 93 91 86
175 182 156 124 141 164 225 239 141 153 181 183 182 176 180 190 203 205 202 198 194 191 182 174 174 180 176 178 175 167 166 158 151 149 153 156 155 147 136 129 128 124 119 113 111 112 104 95 86
186 184 168 142 150 187 228 255 154 176 202 204 206 203 198 200 210 211 212 208 200 197 189 183 182 181 178 176 174 171 168 156 151 146 149 162 161 163 148 133 139 134 130 123 124 113 107 99 92
180 196 196 191 143 215 239 256 217 200 215 220 220 220 214 216 213 211 211 207 201 198 194 186 182 183 171 169 174 162 164 158 155 151 153 155 168 170 147 154 154 143 139 134 132 122 115 105 104
238 231 235 222 191 248 255 264 244 217 218 223 223 225 225 226 215 206 204 202 199 199 199 192 186 180 172 171 181 179 176 172 163 160 157 163 164 164 160 172 160 159 158 159 152 140 137 130 123
231 242 231 199 201 260 270 268 244 219 224 231 231 229 231 230 216 202 199 197 200 199 201 199 192 184 177 175 181 180 174 173 159 160 157 169 171 170 171 174 166 166 162 162 159 160 161 156 183
232 249 255 257 258 240 273 254 218 211 221 231 237 235 232 229 225 209 203 200 196 197 197 195 192 185 180 176 172 164 157 176 174 169 165 171 180 175 181 177 177 172 171 171 176 177 186 188 202
243 261 259 253 253 250 259 281 216 211 223 229 228 227 231 228 227 220 210 209 201 198 195 193 190 188 184 183 187 192 193 195 194 186 174 176 180 175 179 179 182 178 180 180 188 187 194 205 208
282 253 244 252 257 261 242 269 244 204 239 235 228 228 230 227 225 222 217 213 208 197 191 193 189 185 186 191 191 202 203 196 184 182 180 182 174 174 181 180 179 182 187 194 191 190 205 211 227
192 201 212 226 243 249 246 260 275 223 267 265 238 231 226 223 221 221 218 210 204 194 188 188 188 185 187 193 194 199 198 195 188 189 187 183 174 178 182 183 186 188 188 189 192 196 202 217 218
217 240 234 217 221 245 204 255 268 336 302 287 279 247 225 220 217 215 214 210 203 195 190 188 186 186 188 194 196 198 199 198 199 195 192 193 186 183 185 182 188 190 185 182 187 196 205 207 208
218 239 262 267 265 274 224 248 275 326 301 288 280 263 217 215 215 213 213 211 205 200 194 191 189 190 188 193 196 198 196 200 202 204 202 196 195 187 183 182 179 183 180 180 184 196 197 203 201
212 225 272 281 276 267 246 252 261 231 233 223 250 243 227 221 216 215 212 208 205 204 197 193 191 190 190 194 194 196 195 195 196 200 201 196 190 181 180 181 182 182 182 184 183 195 190 191 205
258 219 225 248 265 264 265 261 265 223 237 239 260 262 246 235 224 216 212 211 208 206 199 194 195 195 192 194 194 194 195 192 195 198 199 194 186 179 181 185 180 180 179 184 186 188 189 184 175
200 213 229 245 260 272 280 277 322 279 300 284 278 269 258 251 231 213 207 204 203 199 192 192 196 198 195 192 193 190 188 190 191 195 195 192 191 192 193 190 185 183 182 183 180 184 179 181 174
243 238 230 243 247 254 274 277 113 269 298 296 294 292 275 257 231 215 205 192 192 196 188 187 195 197 196 193 190 190 184 187 193 196 196 195 194 196 198 195 192 190 190 190 185 181 182 184 182
Height
1523 1522 1522 1524 1522 1519 1522 1523 1521 1522 1524 1527 1527 1527 1527 1529 1532 1539 1540 1537 1538 1539 1539 1540 1540 1540 1541 1542 1542 1542 1542 1542 1542 1542 1543 1543 1543 1543 1544 1544 1544 1543 1544 1543 1543 1543 1543 1543 1543
1523 1523 1525 1524 1518 1523 1527 1523 1524 1525 1527 1529 1529 1530 1530 1533 1536 1538 1538 1538 1539 1540 1540 1541 1541 1541 1542 1543 1543 1543 1543 1543 1544 1544 1544 1544 1545 1545 1545 1545 1545 1545 1545 1545 1545 1545 1545 1544 1544
1523 1524 1526 1520 1519 1522 1527 1525 1526 1529 1530 1530 1531 1532 1534 1537 1539 1539 1539 1539 1540 1541 1541 1541 1542 1542 1543 1544 1544 1544 1545 1545 1545 1546 1546 1546 1546 1546 1546 1546 1546 1546 1546 1546 1546 1546 1546 1546 1545
1525 1526 1525 1521 1525 1525 1525 1527 1528 1529 1531 1532 1532 1534 1537 1540 1540 1540 1540 1541 1542 1542 1543 1542 1543 1543 1544 1545 1545 1545 1546 1546 1546 1547 1547 1547 1547 1547 1547 1547 1547 1547 1548 1548 1548 1548 1547 1547 1547
1525 1525 1522 1524 1527 1527 1527 1529 1529 1529 1531 1533 1533 1535 1539 1541 1540 1541 1541 1542 1543 1543 1544 1544 1544 1545 1545 1546 1546 1547 1547 1548 1548 1548 1548 1549 1549 1549 1549 1548 1548 1549 1549 1549 1549 1549 1549 1549 1548
1527 1523 1523 1527 1528 1529 1530 1531 1531 1531 1532 1535 1535 1537 1541 1542 1542 1542 1543 1544 1544 1544 1545 1546 1545 1546 1547 1547 1548 1548 1548 1549 1549 1550 1550 1550 1550 1550 1550 1550 1550 1550 1550 1550 1551 1551 1550 1550 1550
1527 1522 1523 1526 1529 1529 1531 1533 1532 1532 1533 1536 1537 1538 1541 1543 1543 1543 1544 1545 1545 1546 1546 1547 1547 1548 1548 1548 1549 1549 1550 1550 1551 1551 1552 1552 1552 1552 1552 1552 1551 1551 1551 1552 1552 1552 1552 1551 1551
1527 1524 1525 1526 1529 1531 1533 1534 1534 1534 1535 1538 1538 1538 1541 1543 1543 1544 1545 1546 1546 1547 1548 1548 1549 1549 1550 1550 1550 1551 1551 1552 1552 1553 1553 1553 1554 1554 1554 1554 1553 1553 1553 1553 1553 1553 1553 1553 1553
1528 1526 1527 1528 1529 1531 1533 1534 1536 1536 1537 1538 1539 1540 1542 1542 1543 1545 1546 1547 1547 1548 1549 1549 1550 1550 1551 1552 1551 1552 1553 1553 1554 1554 1555 1555 1556 1556 1556 1555 1555 1555 1555 1555 1555 1555 1555 1554 1554
1528 1527 1529 1530 1530 1531 1533 1534 1536 1536 1537 1539 1540 1541 1541 1542 1544 1545 1546 1547 1548 1549 1550 1550 1551 1551 1552 1552 1553 1554 1555 1555 1556 1556 1557 1557 1557 1557 1557 1557 1557 1557 1557 1557 1556 1556 1556 1556 1557
1528 1528 1530 1532 1533 1533 1534 1535 1536 1536 1536 1538 1539 1541 1542 1543 1544 1545 1546 1547 1548 1549 1550 1550 1551 1552 1553 1553 1554 1554 1556 1556 1557 1557 1558 1558 1558 1559 1559 1559 1559 1559 1559 1559 1558 1559 1559 1558 1558
1530 1532 1532 1533 1535 1535 1535 1536 1536 1537 1538 1539 1540 1541 1542 1543 1544 1545 1546 1547 1548 1549 1550 1551 1551 1552 1553 1554 1554 1555 1556 1557 1558 1558 1559 1559 1559 1560 1560 1560 1560 1560 1560 1560 1560 1560 1560 1560 1560
1531 1533 1534 1535 1535 1535 1536 1536 1537 1538 1539 1539 1540 1541 1542 1543 1544 1545 1546 1547 1548 1549 1550 1551 1551 1552 1553 1554 1555 1556 1557 1558 1559 1559 1560 1560 1561 1561 1561 1562 1561 1561 1561 1561 1561 1561 1561 1561 1560
1533 1534 1534 1535 1535 1536 1536 1537 1537 1538 1540 1540 1541 1541 1542 1543 1544 1545 1546 1547 1548 1548 1550 1550 1551 1552 1553 1555 1556 1557 1557 1558 1559 1560 1561 1561 1561 1562 1562 1562 1562 1562 1562 1562 1562 1562 1562 1562 1561
1534 1533 1534 1534 1535 1536 1536 1536 1536 1539 1539 1540 1541 1541 1542 1543 1544 1545 1545 1546 1547 1548 1549 1550 1551 1552 1553 1555 1556 1557 1558 1559 1559 1560 1561 1562 1562 1563 1563 1563 1563 1563 1563 1563 1563 1563 1563 1562 1562
1532 1531 1533 1534 1534 1536 1537 1537 1536 1538 1539 1539 1540 1541 1542 1542 1543 1544 1545 1546 1546 1547 1548 1550 1550 1552 1553 1554 1556 1557 1558 1559 1559 1560 1561 1562 1562 1563 1563 1563 1563 1563 1564 1563 1563 1564 1564 1563 1563
1531 1532 1533 1533 1533 1534 1534 1534 1536 1538 1539 1539 1539 1540 1541 1542 1542 1543 1544 1544 1545 1546 1548 1549 1550 1551 1553 1554 1555 1556 1558 1558 1559 1560 1560 1561 1562 1563 1563 1563 1563 1564 1564 1564 1564 1564 1565 1564 1564
1533 1531 1532 1532 1532 1533 1533 1532 1534 1536 1537 1537 1538 1539 1539 1540 1541 1542 1542 1543 1544 1545 1547 1548 1549 1550 1552 1553 1555 1556 1557 1558 1558 1559 1560 1560 1561 1562 1563 1563 1564 1564 1564 1564 1565 1565 1565 1565 1565
1530 1531 1532 1532 1532 1532 1531 1531 1531 1533 1535 1535 1536 1537 1537 1538 1540 1540 1541 1541 1542 1543 1545 1546 1547 1549 1551 1552 1554 1555 1556 1557 1558 1558 1559 1560 1561 1561 1562 1563 1564 1564 1564 1564 1565 1565 1565 1565 1566
1531 1531 1531 1531 1532 1531 1529 1528 1527 1530 1532 1533 1534 1534 1536 1537 1538 1538 1539 1539 1540 1542 1543 1545 1546 1548 1550 1551 1553 1554 1555 1556 1557 1558 1559 1560 1560 1561 1562 1563 1563 1563 1563 1564 1564 1565 1565 1566 1566
1530 1531 1530 1532 1531 1529 1530 1527 1525 1526 1529 1531 1532 1533 1533 1534 1535 1536 1537 1538 1539 1540 1541 1543 1545 1546 1548 1550 1552 1553 1554 1555 1556 1557 1558 1558 1560 1561 1561 1562 1562 1563 1563 1563 1564 1564 1565 1566 1566
1530 1529 1530 1531 1531 1529 1530 1531 1521 1521 1524 1527 1528 1529 1530 1532 1533 1534 1535 1536 1537 1538 1540 1542 1543 1545 1547 1548 1550 1552 1553 1555 1555 1556 1557 1558 1559 1560 1560 1561 1562 1562 1563 1563 1564 1564 1565 1565 1565
1529 1529 1529 1529 1529 1530 1527 1529 1520 1519 1520 1521 1523 1525 1527 1529 1530 1531 1532 1534 1535 1537 1538 1540 1542 1544 1545 1547 1549 1551 1552 1553 1554 1555 1556 1557 1558 1558 1559 1560 1561 1561 1562 1562 1563 1563 1564 1564 1565
1529 1530 1529 1528 1528 1533 1526 1529 1523 1516 1517 1517 1520 1522 1524 1526 1528 1529 1530 1531 1533 1535 1536 1538 1540 1542 1544 1545 1547 1549 1551 1552 1553 1554 1555 1556 1556 1557 1558 1559 1560 1560 1561 1561 1562 1562 1563 1563 1563
1528 1530 1534 1534 1534 1530 1524 1527 1521 1513 1515 1517 1518 1520 1522 1524 1525 1526 1528 1529 1530 1532 1534 1536 1538 1540 1542 1544 1546 1547 1549 1550 1551 1552 1553 1554 1555 1556 1556 1557 1558 1559 1560 1560 1561 1561 1562 1562 1562
1525 1526 1534 1540 1535 1527 1524 1524 1514 1513 1516 1517 1518 1519 1520 1521 1523 1524 1525 1526 1528 1529 1531 1534 1536 1538 1540 1542 1544 1546 1547 1548 1550 1550 1552 1553 1554 1554 1555 1556 1557 1558 1558 1559 1559 1560 1560 1561 1561
1525 1525 1524 1527 1528 1530 1521 1516 1512 1513 1514 1516 1517 1518 1519 1520 1521 1522 1523 1524 1525 1527 1529 1531 1533 1536 1537 1539 1542 1544 1545 1546 1548 1549 1550 1551 1552 1553 1554 1555 1556 1556 1557 1558 1558 1559 1559 1559 1560
1523 1523 1527 1529 1535 1534 1525 1520 1516 1511 1512 1514 1515 1516 1517 1518 1519 1520 1520 1522 1523 1524 1526 1528 1531 1533 1535 1537 1539 1541 1543 1545 1546 1547 1548 1549 1551 1552 1553 1554 1555 1555 1556 1556 1557 1557 1558 1558 1558
1525 1526 1525 1525 1526 1531 1530 1521 1508 1509 1510 1512 1513 1515 1516 1516 1517 1518 1518 1519 1520 1522 1524 1526 1528 1530 1532 1534 1537 1538 1541 1542 1543 1545 1546 1547 1549 1550 1552 1553 1554 1554 1555 1555 1556 1556 1556 1557 1557
1520 1520 1522 1528 1526 1525 1526 1520 1507 1510 1511 1512 1512 1514 1514 1515 1516 1516 1517 1517 1518 1519 1521 1523 1526 1528 1529 1532 1534 1536 1538 1540 1541 1543 1544 1546 1547 1549 1550 1551 1552 1553 1553 1554 1555 1555 1555 1556 1556